Regional Weather Roundup
Issued by NWS

Home | Current Version | Previous Version | Graphics & Text | Print | Product List | Glossary On
Versions: 1 2 3 4 5 6 7 8 9 10 11 12 13 14 15 16 17 18 19 20 21 22 23 24 25 26 27
000
ASUS45 KTFX 280710
RWRMT
MONTANA REGIONAL WEATHER ROUNDUP
NATIONAL WEATHER SERVICE GREAT FALLS MT
100 AM MDT FRI APR 28 2017

NOTE: "FAIR" INDICATES FEW OR NO CLOUDS BELOW 12000 FEET WITH NO
SIGNIFICANT WEATHER AND/OR OBSTRUCTIONS TO VISIBILITY.

MTZ001>007-043-280800-
WEST OF THE DIVIDE

CITY           SKY/WX    TMP DP  RH WIND       PRES   REMARKS
KALISPELL      CLOUDY    40  37  89 S5        29.90R
MISSOULA       CLOUDY    37  30  75 CALM      29.95R
BUTTE          CLOUDY    32  21  64 W9        29.88R WCI  24
MULLAN PASS    SNOW      27  27 100 NW3       29.89R VSB 1/4
ANACONDA         N/A     30  21  69 CALM      29.90R
DEER LODGE       N/A     30  27  86 CALM      29.92R
EUREKA           N/A     41  36  81 SE9       29.90R
HAMILTON         N/A     34  27  75 CALM      29.95R
LIBBY            N/A     36  32  87 CALM      29.89R
$$

MTZ008-052>055-280800-
SOUTHWEST MONTANA

CITY           SKY/WX    TMP DP  RH WIND       PRES   REMARKS
BOZEMAN        CLOUDY    35  34  96 W5        29.86R
DILLON         CLOUDY    33  25  72 W5        29.86R
W YELLOWSTONE  LGT SNOW  28  28 100 CALM      29.80R VSB 3/4
ENNIS          CLOUDY    32  30  93 N13       29.89S FOG     WCI  22
THREE FORKS      N/A     36  36 100 SW7       29.88R WCI  30
$$

MTZ009-010-012-014-046-048-049-054-280800-
EAST SLOPES AND CENTRAL MONTANA

CITY           SKY/WX    TMP DP  RH WIND       PRES   REMARKS
CUT BANK       CLOUDY    36  34  92 SW5       29.86R
GREAT FALLS    CLOUDY    37  35  92 SW5       29.87R
MALMSTROM AFB  CLOUDY    38  37  98 S5        29.88R
HELENA         CLOUDY    38  33  82 S3        29.87S
AUGUSTA          N/A     33  32  99 CALM      29.85S
BOWMANS CRNR     N/A     31  30  96 SW6       29.85R WCI  25
CHOTEAU          N/A     36  36 100 SW5       29.88R
FAIRFIELD        N/A     35  32  87 CALM      29.86R
POWER          MOCLDY    34  34  98 W7        29.86R WCI  28
RAYNESFORD     LGT RAIN  35  34  96 CALM      29.87R
ULM            MOCLDY    38  36  95 S3        29.87R
$$

MTZ011-013-016-021-045-047-050-051-280800-
NORTH CENTRAL MONTANA

CITY           SKY/WX    TMP DP  RH WIND       PRES   REMARKS
HAVRE          PTCLDY    30  29  96 CALM      29.87R
LEWISTOWN      LGT RAIN  36  35  96 NW3       29.83R FOG
N BAR RANCH    CLOUDY    36  34  93 NW7       29.84R WCI  30
CHINOOK          N/A     36  36 100 CALM      29.88R VSB 3/4
DENTON         MOCLDY    38  35  91 MISG      29.82R
FORT BENTON      N/A     41  37  87 N2        29.88R
GEYSER         LGT RAIN  35  34  93 W12       29.85R WCI  27
GRASS RANGE    LGT RAIN  38  36  93 W5        29.80R
JUDITH GAP     LGT RAIN  35  32  90 NW23G31   29.80R WCI  22
STANFORD       MOCLDY    35  33  94 NW10      29.85R WCI  27
WINIFRED       MOCLDY    38  37  99 W6        29.83R
$$

MTZ017>020-022>027-061-062-280800-
NORTHEAST MONTANA

CITY           SKY/WX    TMP DP  RH WIND       PRES   REMARKS
GLASGOW        CLOUDY    43  15  32 E14       29.83R
JORDAN           N/A     37  27  67 NE7       29.80R WCI  32
SIDNEY         CLEAR     34  17  50 N7        29.87R WCI  28
WOLF POINT     CLOUDY    37  18  46 NE8       29.86R WCI  31
PLENTYWOOD       N/A     36  16  44 E6        29.89R WCI  31
POPLAR           N/A     30  18  59 E6        29.87R WCI  24
$$

MTZ028>42-056>058-280800-
SOUTHCENTRAL AND SOUTHEAST MONTANA

CITY           SKY/WX    TMP DP  RH WIND       PRES   REMARKS
BAKER          CLOUDY    34  24  67 E8        29.82R WCI  27
BILLINGS       LGT RAIN  39  37  92 N9        29.79R
LIVINGSTON     CLOUDY    37  29  72 W9        29.83R WCI  30
MILES CITY     PTCLDY    38  29  70 N9        29.79R WCI  31
BIG TIMBER     CLOUDY    36  34  93 SW10G17   29.85R WCI  28
LAUREL           N/A     39  32  76 N9        29.80S
ROUNDUP          N/A     40  35  82 W6        29.74R
$$

REGIONAL REPORTS...DAKOTAS

CITY           SKY/WX    TMP DP  RH WIND       PRES   REMARKS
WILLISTON      CLEAR     31  19  61 CALM      29.89R
MINOT          CLEAR     28  23  81 N3        29.89R
DICKINSON      CLEAR     31  16  54 E6        29.83R WCI  25
BEACH            N/A     28  19  69 SE3       29.87R
TIOGA            N/A     25  21  86 CALM      29.90R
WATFORD CITY     N/A     30  19  64 E5        29.88R
BISMARCK       CLEAR     33  27  78 E8        29.90R WCI  26
GRAND FORKS    PTCLDY    32  29  88 W8        29.84S WCI  25
FARGO          CLEAR     32  27  81 N12       29.83S WCI  23
BUFFALO SD       N/A     34  26  72 E12       29.73R WCI  25
RAPID CITY     CLOUDY    38  31  76 E5        29.76S
$$

REGIONAL REPORTS...WYOMING/IDAHO/WASHINGTON

CITY           SKY/WX    TMP DP  RH WIND       PRES   REMARKS
GILLETTE       SNOW      33  33 100 N5        29.70R
SHERIDAN       LGT RAIN  34  32  92 W9        29.76R WCI  27
BUFFALO WY     SNOW      34  31  88 NW14      29.73S VSB 1/2 WCI  25
CODY           FLURRIES  34  32  92 N13       29.77R WCI  25
YELLOWSTONE LA   N/A     25  23  92 CALM      29.77S
IDAHO FALLS    CLOUDY    34  33  96 S9        29.84S WCI  27
SALMON         MOCLDY    34  21  60 CALM      29.93R
BOISE          MOCLDY    40  31  70 W10       29.98R
SPOKANE        MOCLDY    44  35  70 CALM      29.93R
$$

REGIONAL REPORTS...ALBERTA

CITY           SKY/WX    TMP DP  RH WIND       PRES   REMARKS
EDMONTON       CLOUDY    30  28  93 NE5       29.95R
CALGARY        CLOUDY    34  27  75 NE8       29.90R WCI  27
LETHBRIDGE     CLOUDY    39  37  93 W7        29.87R
MEDICINE HAT   PTCLDY    39  32  75 N2        29.86R
CARDSTON         N/A     34  34 100 W2          N/A
MILK RIVER       N/A     39  36  87 NW6         N/A
$$

REGIONAL REPORTS...SASKATCHEWAN

CITY           SKY/WX    TMP DP  RH WIND       PRES   REMARKS
SWIFT CURRENT  LGT RAIN  37  36  93 N8        29.86R WCI  31
REGINA         MOCLDY    37  18  44 E13       29.89R WCI  29
SASKATOON      CLOUDY    43  27  52 SE16      29.92R
VAL MARIE        N/A     37  36  93 E3          N/A
ROCKGLEN         N/A     34  19  55 S6          N/A  WCI  29
ASSINIBOIA       N/A     34  34 100 NE2         N/A
$$




USA.gov is the U.S. government's official web portal to all federal, state and local government web resources and services.